Weather Roundup
Issued by NWS Springfield, MO

Home | Current Version | Previous Version | Text Only | Print | Product List | Glossary On
Versions: 1 2 3 4 5 6 7 8 9 10 11 12 13 14 15 16 17 18 19 20 21 22 23 24 25 26 27 28 29 30 31 32 33 34 35 36 37 38 39 40 41 42 43 44 45 46 47 48 49 50
000
NZUS99 KSGF 251207
HRRSGF

HOURLY WEATHER
NATIONAL WEATHER SERVICE SPRINGFIELD MO
600 AM CST SUN FEB 25 2018

......SGF CWA......

CITY           SKY/WX    TMP DP  RH WIND       PRES   REMARKS
SPRINGFIELD    CLEAR     32  28  85 W3        30.01R
6HR MIN TEMP:  32; 6HR MAX TEMP:  36;

JOPLIN         CLEAR     28  28 100 SW3       30.04R
6HR MIN TEMP:  28; 6HR MAX TEMP:  33;

WEST PLAINS    CLEAR     29  27  92 CALM      30.02R
6HR MIN TEMP:  29; 6HR MAX TEMP:  41;

ROLLA          CLEAR     30  29  96 W8        29.99R WCI  22
6HR MIN TEMP:  30; 6HR MAX TEMP:  37;

OSAGE BEACH    CLEAR     30  29  96 W3        30.01S

......SURROUNDING SGF CWA......

CITY           SKY/WX    TMP DP  RH WIND       PRES   REMARKS
CHANUTE        CLEAR     25  21  85 CALM      30.02R
PARSONS        CLOUDY    24  23  96 CALM      30.04R FOG
COFFEYVILLE    FOG       26  26 100 CALM      30.04R VSB 1/4
EMPORIA        CLEAR     26  17  68 W3        29.99S
GROVE OK       CLEAR     28  28 100 CALM      30.05R
ROGERS AR      CLEAR     27  26  96 CALM      30.03R
SILOAM SPRINGS CLEAR     28  27  96 SE6       30.04R FOG     WCI  22
HARRISON AR    CLEAR     31  29  92 CALM      30.03R
NEAR YELLVILLE CLEAR     29  28  96 CALM      30.07R

......KANSAS AND MISSOURI......

CITY           SKY/WX    TMP DP  RH WIND       PRES   REMARKS
KANSAS CTY INT CLEAR     25  20  81 SW9       29.98R WCI  15
DOWNTOWN KC    CLEAR     27  21  78 SW3       30.00R
COLUMBIA       CLEAR     31  26  82 W10       29.98R WCI  22
SEDALIA        CLEAR     32  28  85 W6        30.00R WCI  26
ST JOSEPH      CLEAR     25  21  85 S3        29.99R
ST LOUIS       CLEAR     35  30  82 W14       29.98R WCI  26
SPIRIT OF STL  CLEAR     35  31  85 W10       29.98R WCI  27
KIRKSVILLE     CLEAR     29  22  75 W9        29.93R WCI  20
WICHITA        CLEAR     21  19  92 CALM      30.00R
TOPEKA         CLEAR     23  22  96 CALM      29.99S
OLATHE         CLEAR     24  22  91 CALM      29.98S

......TENNESSEE......

CITY           SKY/WX    TMP DP  RH WIND       PRES   REMARKS
MEMPHIS        CLOUDY    46  40  79 NW6       30.10R
NASHVILLE      FAIR      56  52  86 W3        30.02R

......ARKANSAS.......

CITY           SKY/WX    TMP DP  RH WIND       PRES   REMARKS
FAYETTEVILLE   FOG       28  28 100 CALM      30.03R VSB 1/4
FT SMITH       MOCLDY    32  32 100 CALM      30.08R FOG
LITTLE ROCK    MOCLDY    41  37  86 NE6       30.10R

......OKLAHOMA.......

CITY           SKY/WX    TMP DP  RH WIND       PRES   REMARKS
TULSA          MOCLDY    29  28  96 CALM      30.05R FOG
PONCA CITY     CLEAR     26  22  84 CALM      30.02S
MCALESTER      CLEAR     29  28  96 CALM      30.05R
OKLAHOMA CITY  CLEAR     29  27  92 S3        30.00R

......IOWA............

CITY           SKY/WX    TMP DP  RH WIND       PRES   REMARKS
DES MOINES     CLEAR     24  17  74 W10       29.86R WCI  14
QUAD CITIES    MOCLDY    33  27  78 W13       29.83R WCI  24

......ILLINOIS........

CITY           SKY/WX    TMP DP  RH WIND       PRES   REMARKS
QUINCY         CLEAR     31  26  82 W10       29.92R WCI  22
CHICAGO        CLOUDY    34  25  69 W18G26    29.74R WCI  23




USA.gov is the U.S. government's official web portal to all federal, state and local government web resources and services.